This is the latest recevied weather packets stored in our database for station/object NT9G. If no packets are shown the sender has not sent any weather packets the latest 10 day(s).
| Time | Temp. | Humidity | Pressure | Rain* | Wind** | Luminosity | Snow |
|---|---|---|---|---|---|---|---|
| 1777244593 | 25.56° C | 30% | 1012.1 hPa | 0 mm | - | - | - |
| 1777244293 | 26.11° C | 31% | 1012.1 hPa | 0 mm | - | - | - |
| 1777243993 | 26.11° C | 31% | 1012.2 hPa | 0 mm | - | - | - |
| 1777243692 | 25.56° C | 30% | 1012.2 hPa | 0 mm | - | - | - |
| 1777243392 | 26.11° C | 31% | 1012.3 hPa | 0 mm | - | - | - |
| 1777243092 | 26.11° C | 30% | 1012.4 hPa | 0 mm | - | - | - |
| 1777242792 | 26.11° C | 30% | 1012.4 hPa | 0 mm | - | - | - |
| 1777242491 | 26.11° C | 31% | 1012.6 hPa | 0 mm | - | - | - |
| 1777242191 | 26.11° C | 31% | 1012.5 hPa | 0 mm | - | - | - |
| 1777241891 | 26.11° C | 30% | 1012.7 hPa | 0 mm | - | - | - |
| 1777241590 | 26.67° C | 29% | 1012.7 hPa | 0 mm | - | - | - |
| 1777241290 | 26.67° C | 28% | 1012.7 hPa | 0 mm | - | - | - |
| 1777240990 | 26.67° C | 28% | 1012.7 hPa | 0 mm | - | - | - |
| 1777240689 | 27.22° C | 27% | 1012.8 hPa | 0 mm | - | - | - |
| 1777240389 | 27.22° C | 26% | 1012.8 hPa | 0 mm | - | - | - |
| 1777240089 | 27.78° C | 24% | 1012.8 hPa | 0 mm | - | - | - |
| 1777239788 | 27.78° C | 25% | 1012.9 hPa | 0 mm | - | - | - |
| 1777239488 | 27.78° C | 25% | 1013.1 hPa | 0 mm | - | - | - |
| 1777239188 | 27.78° C | 25% | 1013.1 hPa | 0 mm | - | - | - |
| 1777238888 | 27.78° C | 24% | 1013.1 hPa | 0 mm | - | - | - |
| 1777238587 | 27.78° C | 26% | 1013 hPa | 0 mm | - | - | - |
| 1777238287 | 27.22° C | 28% | 1012.8 hPa | 0 mm | - | - | - |
| 1777237987 | 27.22° C | 29% | 1012.7 hPa | 0 mm | - | - | - |
| 1777237687 | 27.22° C | 25% | 1012.8 hPa | 0 mm | - | - | - |
| 1777237386 | 27.22° C | 25% | 1012.8 hPa | 0 mm | - | - | - |
* Rain since midnight (hover to see other rain measurements)
** Current wind speed in m/s (hover to see current wind gust speed)